Year,Month,Day,Hour,Minute,Value (Times are PST for temperature in C)
2019,08,04,00,00,15.40
2019,08,04,00,01,15.40
2019,08,04,00,02,15.50
2019,08,04,00,03,15.40
2019,08,04,00,04,15.50
2019,08,04,00,05,15.40
2019,08,04,00,06,15.50
2019,08,04,00,07,15.40
2019,08,04,00,08,15.40
2019,08,04,00,09,15.40
2019,08,04,00,10,15.50
2019,08,04,00,11,15.40
2019,08,04,00,12,15.40
2019,08,04,00,13,15.40
2019,08,04,00,14,15.40
2019,08,04,00,15,15.40
2019,08,04,00,16,15.40
2019,08,04,00,17,15.40
2019,08,04,00,18,15.30
2019,08,04,00,19,15.30
2019,08,04,00,20,15.30
2019,08,04,00,21,15.30
2019,08,04,00,22,15.30
2019,08,04,00,23,15.30
2019,08,04,00,24,15.40
2019,08,04,00,25,15.40
2019,08,04,00,26,15.40
2019,08,04,00,27,15.40
2019,08,04,00,28,15.40
2019,08,04,00,29,15.30
2019,08,04,00,30,15.40
2019,08,04,00,31,15.40
2019,08,04,00,32,15.40
2019,08,04,00,33,15.40
2019,08,04,00,34,15.40
2019,08,04,00,35,15.40
2019,08,04,00,36,15.40
2019,08,04,00,37,15.40
2019,08,04,00,38,15.40
2019,08,04,00,39,15.40
2019,08,04,00,40,15.40
2019,08,04,00,41,15.40
2019,08,04,00,42,15.40
2019,08,04,00,43,15.40
2019,08,04,00,44,15.40
2019,08,04,00,45,15.40
2019,08,04,00,46,15.40
2019,08,04,00,47,15.40
2019,08,04,00,48,15.40
2019,08,04,00,49,15.40
2019,08,04,00,50,15.40
2019,08,04,00,51,15.40
2019,08,04,00,52,15.40
2019,08,04,00,53,15.40
2019,08,04,00,54,15.40
2019,08,04,00,55,15.40
2019,08,04,00,56,15.40
2019,08,04,00,57,15.40
2019,08,04,00,58,15.40
2019,08,04,00,59,15.40
2019,08,04,01,00,15.40
2019,08,04,01,01,15.40
2019,08,04,01,02,15.40
2019,08,04,01,03,15.40
2019,08,04,01,04,15.40
2019,08,04,01,05,15.40
2019,08,04,01,06,15.40
2019,08,04,01,07,15.40
2019,08,04,01,08,15.40
2019,08,04,01,09,15.40
2019,08,04,01,10,15.40
2019,08,04,01,11,15.40
2019,08,04,01,12,15.40
2019,08,04,01,13,15.30
2019,08,04,01,14,15.30
2019,08,04,01,15,15.30
2019,08,04,01,16,15.30
2019,08,04,01,17,15.30
2019,08,04,01,18,15.30
2019,08,04,01,19,15.30
2019,08,04,01,20,15.30
2019,08,04,01,21,15.30
2019,08,04,01,22,15.30
2019,08,04,01,23,15.30
2019,08,04,01,24,15.30
2019,08,04,01,25,15.30
2019,08,04,01,26,15.30
2019,08,04,01,27,15.30
2019,08,04,01,28,15.30
2019,08,04,01,29,15.30
2019,08,04,01,30,15.30
2019,08,04,01,31,15.30
2019,08,04,01,32,15.30
2019,08,04,01,33,15.30
2019,08,04,01,34,15.30
2019,08,04,01,35,15.30
2019,08,04,01,36,15.30
2019,08,04,01,37,15.30
2019,08,04,01,38,15.30
2019,08,04,01,39,15.30
2019,08,04,01,40,15.30
2019,08,04,01,41,15.30
2019,08,04,01,42,15.20
2019,08,04,01,43,15.20
2019,08,04,01,44,15.20
2019,08,04,01,45,15.20
2019,08,04,01,46,15.20
2019,08,04,01,47,15.20
2019,08,04,01,48,15.20
2019,08,04,01,49,15.20
2019,08,04,01,50,15.20
2019,08,04,01,51,15.20
2019,08,04,01,52,15.20
2019,08,04,01,53,15.20
2019,08,04,01,54,15.20
2019,08,04,01,55,15.20
2019,08,04,01,56,15.20
2019,08,04,01,57,15.20
2019,08,04,01,58,15.20
2019,08,04,01,59,15.20
2019,08,04,02,00,15.20
2019,08,04,02,01,15.20
2019,08,04,02,02,15.20
2019,08,04,02,03,15.20
2019,08,04,02,04,15.20
2019,08,04,02,05,15.20
2019,08,04,02,06,15.20
2019,08,04,02,07,15.10
2019,08,04,02,08,15.10
2019,08,04,02,09,15.10
2019,08,04,02,10,15.10
2019,08,04,02,11,15.10
2019,08,04,02,12,15.10
2019,08,04,02,13,15.10
2019,08,04,02,14,15.10
2019,08,04,02,15,15.10
2019,08,04,02,16,15.10
2019,08,04,02,17,15.10
2019,08,04,02,18,15.10
2019,08,04,02,19,15.10
2019,08,04,02,20,15.10
2019,08,04,02,21,15.10
2019,08,04,02,22,15.00
2019,08,04,02,23,15.00
2019,08,04,02,24,15.00
2019,08,04,02,25,15.00
2019,08,04,02,26,15.00
2019,08,04,02,27,15.00
2019,08,04,02,28,15.00
2019,08,04,02,29,15.00
2019,08,04,02,30,15.00
2019,08,04,02,31,15.00
2019,08,04,02,32,15.00
2019,08,04,02,33,15.00
2019,08,04,02,34,15.00
2019,08,04,02,35,15.00
2019,08,04,02,36,15.00
2019,08,04,02,37,15.00
2019,08,04,02,38,15.00
2019,08,04,02,39,15.00
2019,08,04,02,40,15.00
2019,08,04,02,41,14.90
2019,08,04,02,42,14.90
2019,08,04,02,43,14.90
2019,08,04,02,44,14.90
2019,08,04,02,45,14.90
2019,08,04,02,46,14.90
2019,08,04,02,47,14.90
2019,08,04,02,48,14.90
2019,08,04,02,49,14.90
2019,08,04,02,50,14.90
2019,08,04,02,51,14.80
2019,08,04,02,52,14.80
2019,08,04,02,53,14.80
2019,08,04,02,54,14.80
2019,08,04,02,55,14.80
2019,08,04,02,56,14.80
2019,08,04,02,57,14.80
2019,08,04,02,58,14.80
2019,08,04,02,59,14.80
2019,08,04,03,00,14.80
2019,08,04,03,01,14.70
2019,08,04,03,02,14.70
2019,08,04,03,03,14.70
2019,08,04,03,04,14.70
2019,08,04,03,05,14.70
2019,08,04,03,06,14.70
2019,08,04,03,07,14.70
2019,08,04,03,08,14.70
2019,08,04,03,09,14.70
2019,08,04,03,10,14.70
2019,08,04,03,11,14.70
2019,08,04,03,12,14.70
2019,08,04,03,13,14.70
2019,08,04,03,14,14.70
2019,08,04,03,15,14.70
2019,08,04,03,16,14.70
2019,08,04,03,17,14.60
2019,08,04,03,18,14.60
2019,08,04,03,19,14.60
2019,08,04,03,20,14.60
2019,08,04,03,21,14.60
2019,08,04,03,22,14.60
2019,08,04,03,23,14.60
2019,08,04,03,24,14.60
2019,08,04,03,25,14.60
2019,08,04,03,26,14.60
2019,08,04,03,27,14.60
2019,08,04,03,28,14.60
2019,08,04,03,29,14.60
2019,08,04,03,30,14.60
2019,08,04,03,31,14.50
2019,08,04,03,32,14.50
2019,08,04,03,33,14.50
2019,08,04,03,34,14.50
2019,08,04,03,35,14.50
2019,08,04,03,36,14.50
2019,08,04,03,37,14.50
2019,08,04,03,38,14.50
2019,08,04,03,39,14.50
2019,08,04,03,40,14.50
2019,08,04,03,41,14.50
2019,08,04,03,42,14.50
2019,08,04,03,43,14.50
2019,08,04,03,44,14.50
2019,08,04,03,45,14.50
2019,08,04,03,46,14.50
2019,08,04,03,47,14.50
2019,08,04,03,48,14.40
2019,08,04,03,49,14.40
2019,08,04,03,50,14.40
2019,08,04,03,51,14.40
2019,08,04,03,52,14.40
2019,08,04,03,53,14.40
2019,08,04,03,54,14.40
2019,08,04,03,55,14.40
2019,08,04,03,56,14.40
2019,08,04,03,57,14.40
2019,08,04,03,58,14.40
2019,08,04,03,59,14.40
2019,08,04,04,00,14.40
2019,08,04,04,01,14.40
2019,08,04,04,02,14.40
2019,08,04,04,03,14.40
2019,08,04,04,04,14.40
2019,08,04,04,05,14.40
2019,08,04,04,06,14.40
2019,08,04,04,07,14.30
2019,08,04,04,08,14.30
2019,08,04,04,09,14.30
2019,08,04,04,10,14.30
2019,08,04,04,11,14.30
2019,08,04,04,12,14.30
2019,08,04,04,13,14.30
2019,08,04,04,14,14.30
2019,08,04,04,15,14.30
2019,08,04,04,16,14.30
2019,08,04,04,17,14.30
2019,08,04,04,18,14.30
2019,08,04,04,19,14.30
2019,08,04,04,20,14.30
2019,08,04,04,21,14.30
2019,08,04,04,22,14.30
2019,08,04,04,23,14.30
2019,08,04,04,24,14.30
2019,08,04,04,25,14.30
2019,08,04,04,26,14.30
2019,08,04,04,27,14.30
2019,08,04,04,28,14.30
2019,08,04,04,29,14.30
2019,08,04,04,30,14.30
2019,08,04,04,31,14.20
2019,08,04,04,32,14.20
2019,08,04,04,33,14.20
2019,08,04,04,34,14.20
2019,08,04,04,35,14.20
2019,08,04,04,36,14.20
2019,08,04,04,37,14.20
2019,08,04,04,38,14.20
2019,08,04,04,39,14.20
2019,08,04,04,40,14.20
2019,08,04,04,41,14.20
2019,08,04,04,42,14.30
2019,08,04,04,43,14.30
2019,08,04,04,44,14.30
2019,08,04,04,45,14.30
2019,08,04,04,46,14.30
2019,08,04,04,47,14.30
2019,08,04,04,48,14.30
2019,08,04,04,49,14.30
2019,08,04,04,50,14.30
2019,08,04,04,51,14.20
2019,08,04,04,52,14.20
2019,08,04,04,53,14.20
2019,08,04,04,54,14.20
2019,08,04,04,55,14.20
2019,08,04,04,56,14.20
2019,08,04,04,57,14.10
2019,08,04,04,58,14.10
2019,08,04,04,59,14.10
2019,08,04,05,00,14.10
2019,08,04,05,01,14.10
2019,08,04,05,02,14.10
2019,08,04,05,03,14.10
2019,08,04,05,04,14.00
2019,08,04,05,05,14.00
2019,08,04,05,06,14.00
2019,08,04,05,07,14.00
2019,08,04,05,08,13.90
2019,08,04,05,09,13.90
2019,08,04,05,10,13.90
2019,08,04,05,11,13.90
2019,08,04,05,12,13.90
2019,08,04,05,13,13.90
2019,08,04,05,14,13.90
2019,08,04,05,15,13.90
2019,08,04,05,16,13.90
2019,08,04,05,17,13.90
2019,08,04,05,18,13.90
2019,08,04,05,19,13.80
2019,08,04,05,20,13.80
2019,08,04,05,21,13.80
2019,08,04,05,22,13.80
2019,08,04,05,23,13.80
2019,08,04,05,24,13.80
2019,08,04,05,25,13.90
2019,08,04,05,26,13.90
2019,08,04,05,27,13.90
2019,08,04,05,28,13.90
2019,08,04,05,29,13.90
2019,08,04,05,30,13.90
2019,08,04,05,31,13.90
2019,08,04,05,32,13.90
2019,08,04,05,33,13.90
2019,08,04,05,34,13.90
2019,08,04,05,35,13.90
2019,08,04,05,36,13.90
2019,08,04,05,37,13.90
2019,08,04,05,38,13.90
2019,08,04,05,39,13.90
2019,08,04,05,40,13.90
2019,08,04,05,41,13.80
2019,08,04,05,42,13.80
2019,08,04,05,43,13.80
2019,08,04,05,44,13.80
2019,08,04,05,45,13.80
2019,08,04,05,46,13.80
2019,08,04,05,47,13.80
2019,08,04,05,48,13.80
2019,08,04,05,49,13.80
2019,08,04,05,50,13.80
2019,08,04,05,51,13.80
2019,08,04,05,52,13.80
2019,08,04,05,53,13.80
2019,08,04,05,54,13.80
2019,08,04,05,55,13.80
2019,08,04,05,56,13.80
2019,08,04,05,57,13.80
2019,08,04,05,58,13.80
2019,08,04,05,59,13.80
2019,08,04,06,00,13.80
2019,08,04,06,01,13.80
2019,08,04,06,02,13.80
2019,08,04,06,03,13.80
2019,08,04,06,04,13.80
2019,08,04,06,05,13.80
2019,08,04,06,06,13.80
2019,08,04,06,07,13.80
2019,08,04,06,08,13.80
2019,08,04,06,09,13.80
2019,08,04,06,10,13.80
2019,08,04,06,11,13.80
2019,08,04,06,12,13.80
2019,08,04,06,13,13.80
2019,08,04,06,14,13.80
2019,08,04,06,15,13.80
2019,08,04,06,16,13.70
2019,08,04,06,17,13.70
2019,08,04,06,18,13.70
2019,08,04,06,19,13.70
2019,08,04,06,20,13.70
2019,08,04,06,21,13.70
2019,08,04,06,22,13.70
2019,08,04,06,23,13.70
2019,08,04,06,24,13.70
2019,08,04,06,25,13.70
2019,08,04,06,26,13.70
2019,08,04,06,27,13.70
2019,08,04,06,28,13.70
2019,08,04,06,29,13.70
2019,08,04,06,30,13.60
2019,08,04,06,31,13.70
2019,08,04,06,32,13.60
2019,08,04,06,33,13.60
2019,08,04,06,34,13.60
2019,08,04,06,35,13.60
2019,08,04,06,36,13.70
2019,08,04,06,37,13.70
2019,08,04,06,38,13.70
2019,08,04,06,39,13.70
2019,08,04,06,40,13.70
2019,08,04,06,41,13.70
2019,08,04,06,42,13.70
2019,08,04,06,43,13.70
2019,08,04,06,44,13.70
2019,08,04,06,45,13.70
2019,08,04,06,46,13.70
2019,08,04,06,47,13.70
2019,08,04,06,48,13.70
2019,08,04,06,49,13.70
2019,08,04,06,50,13.70
2019,08,04,06,51,13.70
2019,08,04,06,52,13.70
2019,08,04,06,53,13.70
2019,08,04,06,54,13.80
2019,08,04,06,55,13.80
2019,08,04,06,56,13.80
2019,08,04,06,57,13.80
2019,08,04,06,58,13.80
2019,08,04,06,59,13.80
2019,08,04,07,00,13.90
2019,08,04,07,01,13.90
2019,08,04,07,02,13.90
2019,08,04,07,03,13.90
2019,08,04,07,04,13.90
2019,08,04,07,05,14.00
2019,08,04,07,06,14.00
2019,08,04,07,07,14.00
2019,08,04,07,08,14.00
2019,08,04,07,09,14.00
2019,08,04,07,10,14.10
2019,08,04,07,11,14.10
2019,08,04,07,12,14.10
2019,08,04,07,13,14.10
2019,08,04,07,14,14.10
2019,08,04,07,15,14.10
2019,08,04,07,16,14.20
2019,08,04,07,17,14.20
2019,08,04,07,18,14.20
2019,08,04,07,19,14.20
2019,08,04,07,20,14.20
2019,08,04,07,21,14.30
2019,08,04,07,22,14.30
2019,08,04,07,23,14.30
2019,08,04,07,24,14.30
2019,08,04,07,25,14.30
2019,08,04,07,26,14.40
2019,08,04,07,27,14.40
2019,08,04,07,28,14.50
2019,08,04,07,29,14.50
2019,08,04,07,30,14.50
2019,08,04,07,31,14.60
2019,08,04,07,32,14.60
2019,08,04,07,33,14.60
2019,08,04,07,34,14.70
2019,08,04,07,35,14.70
2019,08,04,07,36,14.70
2019,08,04,07,37,14.70
2019,08,04,07,38,14.80
2019,08,04,07,39,14.80
2019,08,04,07,40,14.80
2019,08,04,07,41,14.90
2019,08,04,07,42,14.90
2019,08,04,07,43,15.00
2019,08,04,07,44,15.00
2019,08,04,07,45,15.00
2019,08,04,07,46,15.10
2019,08,04,07,47,15.10
2019,08,04,07,48,15.20
2019,08,04,07,49,15.20
2019,08,04,07,50,15.30
2019,08,04,07,51,15.30
2019,08,04,07,52,15.40
2019,08,04,07,53,15.50
2019,08,04,07,54,15.50
2019,08,04,07,55,15.60
2019,08,04,07,56,15.70
2019,08,04,07,57,15.80
2019,08,04,07,58,15.90
2019,08,04,07,59,16.00
2019,08,04,08,00,16.10
2019,08,04,08,01,16.20
2019,08,04,08,02,16.30
2019,08,04,08,03,16.40
2019,08,04,08,04,16.50
2019,08,04,08,05,16.60
2019,08,04,08,06,16.60
2019,08,04,08,07,16.70
2019,08,04,08,08,16.80
2019,08,04,08,09,16.90
2019,08,04,08,10,17.00
2019,08,04,08,11,17.10
2019,08,04,08,12,17.30
2019,08,04,08,13,17.40
2019,08,04,08,14,17.50
2019,08,04,08,15,17.50
2019,08,04,08,16,17.60
2019,08,04,08,17,17.70
2019,08,04,08,18,17.70
2019,08,04,08,19,17.70
2019,08,04,08,20,17.70
2019,08,04,08,21,17.80
2019,08,04,08,22,17.80
2019,08,04,08,23,17.90
2019,08,04,08,24,18.00
2019,08,04,08,25,18.10
2019,08,04,08,26,18.20
2019,08,04,08,27,18.20
2019,08,04,08,28,18.20
2019,08,04,08,29,18.20
2019,08,04,08,30,18.30
2019,08,04,08,31,18.30
2019,08,04,08,32,18.30
2019,08,04,08,33,18.30
2019,08,04,08,34,18.40
2019,08,04,08,35,18.40
2019,08,04,08,36,18.50
2019,08,04,08,37,18.50
2019,08,04,08,38,18.60
2019,08,04,08,39,18.60
2019,08,04,08,40,18.70
2019,08,04,08,41,18.70
2019,08,04,08,42,18.70
2019,08,04,08,43,18.70
2019,08,04,08,44,18.70
2019,08,04,08,45,18.70
2019,08,04,08,46,18.70
2019,08,04,08,47,18.80
2019,08,04,08,48,18.80
2019,08,04,08,49,18.80
2019,08,04,08,50,18.80
2019,08,04,08,51,18.90
2019,08,04,08,52,19.00
2019,08,04,08,53,19.00
2019,08,04,08,54,19.10
2019,08,04,08,55,19.20
2019,08,04,08,56,19.20
2019,08,04,08,57,19.30
2019,08,04,08,58,19.30
2019,08,04,08,59,19.30
2019,08,04,09,00,19.40
2019,08,04,09,01,19.40
2019,08,04,09,02,19.50
2019,08,04,09,03,19.50
2019,08,04,09,04,19.60
2019,08,04,09,05,19.60
2019,08,04,09,06,19.70
2019,08,04,09,07,19.70
2019,08,04,09,08,19.70
2019,08,04,09,09,19.80
2019,08,04,09,10,19.80
2019,08,04,09,11,19.90
2019,08,04,09,12,19.90
2019,08,04,09,13,20.00
2019,08,04,09,14,20.00
2019,08,04,09,15,20.10
2019,08,04,09,16,20.20
2019,08,04,09,17,20.30
2019,08,04,09,18,20.40
2019,08,04,09,19,20.40
2019,08,04,09,20,20.40
2019,08,04,09,21,20.50
2019,08,04,09,22,20.60
2019,08,04,09,23,20.60
2019,08,04,09,24,20.70
2019,08,04,09,25,20.80
2019,08,04,09,26,20.80
2019,08,04,09,27,20.90
2019,08,04,09,28,20.90
2019,08,04,09,29,21.00
2019,08,04,09,30,21.10
2019,08,04,09,31,21.10
2019,08,04,09,32,21.20
2019,08,04,09,33,21.20
2019,08,04,09,34,21.30
2019,08,04,09,35,21.30
2019,08,04,09,36,21.30
2019,08,04,09,37,21.30
2019,08,04,09,38,21.30
2019,08,04,09,39,21.40
2019,08,04,09,40,21.40
2019,08,04,09,41,21.40
2019,08,04,09,42,21.40
2019,08,04,09,43,21.40
2019,08,04,09,44,21.50
2019,08,04,09,45,21.50
2019,08,04,09,46,21.60
2019,08,04,09,47,21.60
2019,08,04,09,48,21.60
2019,08,04,09,49,21.60
2019,08,04,09,50,21.70
2019,08,04,09,51,21.70
2019,08,04,09,52,21.70
2019,08,04,09,53,21.80
2019,08,04,09,54,21.80
2019,08,04,09,55,21.80
2019,08,04,09,56,21.80
2019,08,04,09,57,21.80
2019,08,04,09,58,21.80
2019,08,04,09,59,21.90
2019,08,04,10,00,21.90
2019,08,04,10,01,21.90
2019,08,04,10,02,21.90
2019,08,04,10,03,21.90
2019,08,04,10,04,21.90
2019,08,04,10,05,21.90
2019,08,04,10,06,21.90
2019,08,04,10,07,21.90
2019,08,04,10,08,22.00
2019,08,04,10,09,22.00
2019,08,04,10,10,22.10
2019,08,04,10,11,22.10
2019,08,04,10,12,22.10
2019,08,04,10,13,22.20
2019,08,04,10,14,22.20
2019,08,04,10,15,22.20
2019,08,04,10,16,22.20
2019,08,04,10,17,22.20
2019,08,04,10,18,22.20
2019,08,04,10,19,22.20
2019,08,04,10,20,22.20
2019,08,04,10,21,22.20
2019,08,04,10,22,22.30
2019,08,04,10,23,22.30
2019,08,04,10,24,22.30
2019,08,04,10,25,22.30
2019,08,04,10,26,22.30
2019,08,04,10,27,22.30
2019,08,04,10,28,22.30
2019,08,04,10,29,22.30
2019,08,04,10,30,22.30
2019,08,04,10,31,22.30
2019,08,04,10,32,22.30
2019,08,04,10,33,22.30
2019,08,04,10,34,22.30
2019,08,04,10,35,22.40
2019,08,04,10,36,22.40
2019,08,04,10,37,22.50
2019,08,04,10,38,22.50
2019,08,04,10,39,22.50
2019,08,04,10,40,22.60
2019,08,04,10,41,22.60
2019,08,04,10,42,22.60
2019,08,04,10,43,22.60
2019,08,04,10,44,22.60
2019,08,04,10,45,22.60
2019,08,04,10,46,22.70
2019,08,04,10,47,22.70
2019,08,04,10,48,22.70
2019,08,04,10,49,22.70
2019,08,04,10,50,22.70
2019,08,04,10,51,22.70
2019,08,04,10,52,22.70
2019,08,04,10,53,22.80
2019,08,04,10,54,22.80
2019,08,04,10,55,22.80
2019,08,04,10,56,22.80
2019,08,04,10,57,22.80
2019,08,04,10,58,22.80
2019,08,04,10,59,22.80
2019,08,04,11,00,22.80
2019,08,04,11,01,22.80
2019,08,04,11,02,22.80
2019,08,04,11,03,22.80
2019,08,04,11,04,22.80
2019,08,04,11,05,22.80
2019,08,04,11,06,22.90
2019,08,04,11,07,22.90
2019,08,04,11,08,22.90
2019,08,04,11,09,22.90
2019,08,04,11,10,22.90
2019,08,04,11,11,23.00
2019,08,04,11,12,23.00
2019,08,04,11,13,23.00
2019,08,04,11,14,23.10
2019,08,04,11,15,23.10
2019,08,04,11,16,23.10
2019,08,04,11,17,23.10
2019,08,04,11,18,23.20
2019,08,04,11,19,23.20
2019,08,04,11,20,23.20
2019,08,04,11,21,23.20
2019,08,04,11,22,23.20
2019,08,04,11,23,23.30
2019,08,04,11,24,23.30
2019,08,04,11,25,23.30
2019,08,04,11,26,23.30
2019,08,04,11,27,23.30
2019,08,04,11,28,23.30
2019,08,04,11,29,23.30
2019,08,04,11,30,23.30
2019,08,04,11,31,23.30
2019,08,04,11,32,23.30
2019,08,04,11,33,23.30
2019,08,04,11,34,23.30
2019,08,04,11,35,23.30
2019,08,04,11,36,23.30
2019,08,04,11,37,23.30
2019,08,04,11,38,23.30
2019,08,04,11,39,23.30
2019,08,04,11,40,23.30
2019,08,04,11,41,23.30
2019,08,04,11,42,23.40
2019,08,04,11,43,23.40
2019,08,04,11,44,23.40
2019,08,04,11,45,23.50
2019,08,04,11,46,23.50
2019,08,04,11,47,23.60
2019,08,04,11,48,23.60
2019,08,04,11,49,23.60
2019,08,04,11,50,23.60
2019,08,04,11,51,23.60
2019,08,04,11,52,23.70
2019,08,04,11,53,23.70
2019,08,04,11,54,23.70
2019,08,04,11,55,23.70
2019,08,04,11,56,23.80
2019,08,04,11,57,23.80
2019,08,04,11,58,23.80
2019,08,04,11,59,23.80
2019,08,04,12,00,23.80
2019,08,04,12,01,23.80
2019,08,04,12,02,23.80
2019,08,04,12,03,23.80
2019,08,04,12,04,23.80
2019,08,04,12,05,23.80
2019,08,04,12,06,23.80
2019,08,04,12,07,23.80
2019,08,04,12,08,23.90
2019,08,04,12,09,23.90
2019,08,04,12,10,23.90
2019,08,04,12,11,23.90
2019,08,04,12,12,23.90
2019,08,04,12,13,23.90
2019,08,04,12,14,23.80
2019,08,04,12,15,23.80
2019,08,04,12,16,23.80
2019,08,04,12,17,23.90
2019,08,04,12,18,23.90
2019,08,04,12,19,23.90
2019,08,04,12,20,23.90
2019,08,04,12,21,23.80
2019,08,04,12,22,23.80
2019,08,04,12,23,23.90
2019,08,04,12,24,23.90
2019,08,04,12,25,23.90
2019,08,04,12,26,24.00
2019,08,04,12,27,24.00
2019,08,04,12,28,23.90
2019,08,04,12,29,24.00
2019,08,04,12,30,24.00
2019,08,04,12,31,24.00
2019,08,04,12,32,24.00
2019,08,04,12,33,24.00
2019,08,04,12,34,24.10
2019,08,04,12,35,24.10
2019,08,04,12,36,24.10
2019,08,04,12,37,24.20
2019,08,04,12,38,24.20
2019,08,04,12,39,24.10
2019,08,04,12,40,24.10
2019,08,04,12,41,24.10
2019,08,04,12,42,24.10
2019,08,04,12,43,24.10
2019,08,04,12,44,24.00
2019,08,04,12,45,23.90
2019,08,04,12,46,23.80
2019,08,04,12,47,23.70
2019,08,04,12,48,23.70
2019,08,04,12,49,23.60
2019,08,04,12,50,23.50
2019,08,04,12,51,23.50
2019,08,04,12,52,23.40
2019,08,04,12,53,23.30
2019,08,04,12,54,23.10
2019,08,04,12,55,22.80
2019,08,04,12,56,22.50
2019,08,04,12,57,22.20
2019,08,04,12,58,22.10
2019,08,04,12,59,21.90
2019,08,04,13,00,21.80
2019,08,04,13,01,21.70
2019,08,04,13,02,21.50
2019,08,04,13,03,21.30
2019,08,04,13,04,21.20
2019,08,04,13,05,21.10
2019,08,04,13,06,21.00
2019,08,04,13,07,20.90
2019,08,04,13,08,20.90
2019,08,04,13,09,20.80
2019,08,04,13,10,20.80
2019,08,04,13,11,20.80
2019,08,04,13,12,20.80
2019,08,04,13,13,20.70
2019,08,04,13,14,20.60
2019,08,04,13,15,20.60
2019,08,04,13,16,20.60
2019,08,04,13,17,20.50
2019,08,04,13,18,20.50
2019,08,04,13,19,20.50
2019,08,04,13,20,20.60
2019,08,04,13,21,20.60
2019,08,04,13,22,20.60
2019,08,04,13,23,20.70
2019,08,04,13,24,20.70
2019,08,04,13,25,20.70
2019,08,04,13,26,20.70
2019,08,04,13,27,20.70
2019,08,04,13,28,20.70
2019,08,04,13,29,20.70
2019,08,04,13,30,20.80
2019,08,04,13,31,20.80
2019,08,04,13,32,20.80
2019,08,04,13,33,20.90
2019,08,04,13,34,21.00
2019,08,04,13,35,21.10
2019,08,04,13,36,21.20
2019,08,04,13,37,21.20
2019,08,04,13,38,21.30
2019,08,04,13,39,21.30
2019,08,04,13,40,21.20
2019,08,04,13,41,21.20
2019,08,04,13,42,21.20
2019,08,04,13,43,21.20
2019,08,04,13,44,21.20
2019,08,04,13,45,21.20
2019,08,04,13,46,21.20
2019,08,04,13,47,21.10
2019,08,04,13,48,21.00
2019,08,04,13,49,20.90
2019,08,04,13,50,20.80
2019,08,04,13,51,20.70
2019,08,04,13,52,20.60
2019,08,04,13,53,20.50
2019,08,04,13,54,20.40
2019,08,04,13,55,20.40
2019,08,04,13,56,20.40
2019,08,04,13,57,20.40
2019,08,04,13,58,20.40
2019,08,04,13,59,20.40
2019,08,04,14,00,20.50
2019,08,04,14,01,20.50
2019,08,04,14,02,20.50
2019,08,04,14,03,20.60
2019,08,04,14,04,20.60
2019,08,04,14,05,20.60
2019,08,04,14,06,20.60
2019,08,04,14,07,20.60
2019,08,04,14,08,20.70
2019,08,04,14,09,20.70
2019,08,04,14,10,20.70
2019,08,04,14,11,20.80
2019,08,04,14,12,20.80
2019,08,04,14,13,20.70
2019,08,04,14,14,20.70
2019,08,04,14,15,20.70
2019,08,04,14,16,20.70
2019,08,04,14,17,20.70
2019,08,04,14,18,20.70
2019,08,04,14,19,20.70
2019,08,04,14,20,20.70
2019,08,04,14,21,20.70
2019,08,04,14,22,20.70
2019,08,04,14,23,20.70
2019,08,04,14,24,20.70
2019,08,04,14,25,20.80
2019,08,04,14,26,20.80
2019,08,04,14,27,21.00
2019,08,04,14,28,21.10
2019,08,04,14,29,21.20
2019,08,04,14,30,21.30
2019,08,04,14,31,21.40
2019,08,04,14,32,21.40
2019,08,04,14,33,21.40
2019,08,04,14,34,21.50
2019,08,04,14,35,21.50
2019,08,04,14,36,21.60
2019,08,04,14,37,21.60
2019,08,04,14,38,21.70
2019,08,04,14,39,21.90
2019,08,04,14,40,21.90
2019,08,04,14,41,22.00
2019,08,04,14,42,22.00
2019,08,04,14,43,22.10
2019,08,04,14,44,22.20
2019,08,04,14,45,22.30
2019,08,04,14,46,22.40
2019,08,04,14,47,22.50
2019,08,04,14,48,22.60
2019,08,04,14,49,22.70
2019,08,04,14,50,22.70
2019,08,04,14,51,22.80
2019,08,04,14,52,22.90
2019,08,04,14,53,23.00
2019,08,04,14,54,23.20
2019,08,04,14,55,23.50
2019,08,04,14,56,23.90
2019,08,04,14,57,24.30
2019,08,04,14,58,24.60
2019,08,04,14,59,24.90
2019,08,04,15,00,25.20
2019,08,04,15,01,25.40
2019,08,04,15,02,25.50
2019,08,04,15,03,25.70
2019,08,04,15,04,25.80
2019,08,04,15,05,25.80
2019,08,04,15,06,25.90
2019,08,04,15,07,25.90
2019,08,04,15,08,26.00
2019,08,04,15,09,26.00
2019,08,04,15,10,26.10
2019,08,04,15,11,26.10
2019,08,04,15,12,26.20
2019,08,04,15,13,26.20
2019,08,04,15,14,26.30
2019,08,04,15,15,26.10
2019,08,04,15,16,25.70
2019,08,04,15,17,25.20
2019,08,04,15,18,24.70
2019,08,04,15,19,24.30
2019,08,04,15,20,24.00
2019,08,04,15,21,23.70
2019,08,04,15,22,23.50
2019,08,04,15,23,23.20
2019,08,04,15,24,23.00
2019,08,04,15,25,22.70
2019,08,04,15,26,22.50
2019,08,04,15,27,22.30
2019,08,04,15,28,22.20
2019,08,04,15,29,22.10
2019,08,04,15,30,22.00
2019,08,04,15,31,21.90
2019,08,04,15,32,21.90
2019,08,04,15,33,21.80
2019,08,04,15,34,21.60
2019,08,04,15,35,21.50
2019,08,04,15,36,21.40
2019,08,04,15,37,21.30
2019,08,04,15,38,21.20
2019,08,04,15,39,21.20
2019,08,04,15,40,21.10
2019,08,04,15,41,21.10
2019,08,04,15,42,21.10
2019,08,04,15,43,21.00
2019,08,04,15,44,21.00
2019,08,04,15,45,21.00
2019,08,04,15,46,21.00
2019,08,04,15,47,21.00
2019,08,04,15,48,20.90
2019,08,04,15,49,20.90
2019,08,04,15,50,20.90
2019,08,04,15,51,20.90
2019,08,04,15,52,21.00
2019,08,04,15,53,21.00
2019,08,04,15,54,20.90
2019,08,04,15,55,20.80
2019,08,04,15,56,20.80
2019,08,04,15,57,20.70
2019,08,04,15,58,20.70
2019,08,04,15,59,20.70
2019,08,04,16,00,20.70
2019,08,04,16,01,20.70
2019,08,04,16,02,20.70
2019,08,04,16,03,20.60
2019,08,04,16,04,20.60
2019,08,04,16,05,20.60
2019,08,04,16,06,20.50
2019,08,04,16,07,20.50
2019,08,04,16,08,20.60
2019,08,04,16,09,20.60
2019,08,04,16,10,20.60
2019,08,04,16,11,20.60
2019,08,04,16,12,20.70
2019,08,04,16,13,20.70
2019,08,04,16,14,20.80
2019,08,04,16,15,20.80
2019,08,04,16,16,20.80
2019,08,04,16,17,20.90
2019,08,04,16,18,20.90
2019,08,04,16,19,20.90
2019,08,04,16,20,20.90
2019,08,04,16,21,21.00
2019,08,04,16,22,21.00
2019,08,04,16,23,21.10
2019,08,04,16,24,21.10
2019,08,04,16,25,21.20
2019,08,04,16,26,21.30
2019,08,04,16,27,21.30
2019,08,04,16,28,21.40
2019,08,04,16,29,21.50
2019,08,04,16,30,21.60
2019,08,04,16,31,21.70
2019,08,04,16,32,21.80
2019,08,04,16,33,21.90
2019,08,04,16,34,22.00
2019,08,04,16,35,22.00
2019,08,04,16,36,22.10
2019,08,04,16,37,22.10
2019,08,04,16,38,22.20
2019,08,04,16,39,22.20
2019,08,04,16,40,22.20
2019,08,04,16,41,22.30
2019,08,04,16,42,22.30
2019,08,04,16,43,22.40
2019,08,04,16,44,22.40
2019,08,04,16,45,22.40
2019,08,04,16,46,22.40
2019,08,04,16,47,22.50
2019,08,04,16,48,22.50
2019,08,04,16,49,22.60
2019,08,04,16,50,22.60
2019,08,04,16,51,22.70
2019,08,04,16,52,22.70
2019,08,04,16,53,22.70
2019,08,04,16,54,22.70
2019,08,04,16,55,22.80
2019,08,04,16,56,22.80
2019,08,04,16,57,22.80
2019,08,04,16,58,22.80
2019,08,04,16,59,22.80
2019,08,04,17,00,22.80
2019,08,04,17,01,22.80
2019,08,04,17,02,22.70
2019,08,04,17,03,22.70
2019,08,04,17,04,22.60
2019,08,04,17,05,22.40
2019,08,04,17,06,22.30
2019,08,04,17,07,22.20
2019,08,04,17,08,22.20
2019,08,04,17,09,22.10
2019,08,04,17,10,22.10
2019,08,04,17,11,22.10
2019,08,04,17,12,22.10
2019,08,04,17,13,22.00
2019,08,04,17,14,22.00
2019,08,04,17,15,21.90
2019,08,04,17,16,21.80
2019,08,04,17,17,21.70
2019,08,04,17,18,21.70
2019,08,04,17,19,21.60